TimeCDT,TemperatureF,Dew PointF,Humidity,Sea Level PressureIn,VisibilityMPH,Wind Direction,Wind SpeedMPH,Gust SpeedMPH,PrecipitationIn,Events,Conditions,WindDirDegrees,DateUTC
12:53 AM,59.0,50.0,72,29.99,10.0,SE,5.8,-,N/A,,Clear,130,2013-05-08 05:53:00
1:53 AM,62.1,50.0,65,29.98,10.0,SE,5.8,-,N/A,,Clear,140,2013-05-08 06:53:00
2:53 AM,59.0,48.9,69,29.97,10.0,SE,4.6,-,N/A,,Clear,140,2013-05-08 07:53:00
3:53 AM,59.0,48.9,69,29.96,10.0,SE,5.8,-,N/A,,Clear,140,2013-05-08 08:53:00
4:53 AM,55.9,48.9,77,29.95,10.0,SE,5.8,-,N/A,,Clear,140,2013-05-08 09:53:00
5:53 AM,57.0,48.9,74,29.97,10.0,SSE,4.6,-,N/A,,Mostly Cloudy,160,2013-05-08 10:53:00
6:53 AM,55.0,51.1,86,30.01,10.0,Calm,Calm,-,N/A,,Overcast,0,2013-05-08 11:53:00
7:53 AM,57.0,52.0,83,30.03,10.0,Calm,Calm,-,0.00,Rain,Light Rain,0,2013-05-08 12:53:00
8:53 AM,57.9,54.0,87,30.05,10.0,Calm,Calm,-,0.00,,Mostly Cloudy,0,2013-05-08 13:53:00
9:53 AM,57.9,55.0,90,30.06,8.0,Calm,Calm,-,0.02,Rain,Light Rain,0,2013-05-08 14:53:00
10:53 AM,60.1,55.9,86,30.05,7.0,Calm,Calm,-,0.06,Rain,Light Rain,0,2013-05-08 15:53:00
11:53 AM,60.1,57.9,93,30.10,3.0,WNW,9.2,-,0.01,Rain,Rain,290,2013-05-08 16:53:00
12:53 PM,59.0,57.9,96,30.04,10.0,SE,10.4,-,0.10,Rain,Light Rain,130,2013-05-08 17:53:00
1:53 PM,66.0,59.0,78,29.94,10.0,SSE,17.3,25.3,0.00,,Clear,150,2013-05-08 18:53:00
2:53 PM,70.0,59.0,68,29.95,10.0,SSE,19.6,24.2,N/A,,Clear,150,2013-05-08 19:53:00
3:53 PM,73.0,57.0,57,29.93,10.0,South,17.3,23.0,N/A,,Scattered Clouds,170,2013-05-08 20:53:00
4:53 PM,75.0,57.0,53,29.92,10.0,South,18.4,25.3,N/A,,Clear,170,2013-05-08 21:53:00
5:53 PM,77.0,57.9,52,29.90,10.0,South,10.4,-,N/A,,Clear,170,2013-05-08 22:53:00
6:53 PM,75.0,55.0,50,29.88,10.0,South,9.2,-,N/A,,Clear,170,2013-05-08 23:53:00
7:53 PM,72.0,54.0,53,29.88,10.0,South,6.9,-,N/A,,Clear,170,2013-05-09 00:53:00
8:53 PM,70.0,53.1,55,29.88,10.0,SSE,6.9,-,N/A,,Clear,150,2013-05-09 01:53:00
9:53 PM,69.1,54.0,58,29.91,10.0,SE,5.8,-,N/A,,Clear,140,2013-05-09 02:53:00
10:53 PM,66.0,55.0,68,29.94,10.0,South,4.6,-,0.00,Rain,Light Rain,170,2013-05-09 03:53:00
11:53 PM,64.9,57.9,78,29.93,10.0,South,8.1,-,0.00,,Mostly Cloudy,180,2013-05-09 04:53:00